Regional Weather Roundup
Issued by NWS New Orleans/Baton Rouge, LA

Home | Current Version | Previous Version | Text Only | Print | Product List | Glossary On
Versions: 1 2 3 4 5 6 7 8 9 10 11 12 13 14 15 16 17 18 19 20 21 22 23 24 25 26 27
000
ASUS44 KLIX 250013
RWRLIX
NEW ORLEANS REGIONAL WEATHER ROUNDUP
NATIONAL WEATHER SERVICE NEW ORLEANS LA
700 PM CDT MON APR 24 2017

NOTE: "FAIR" INDICATES FEW OR NO CLOUDS BELOW 12,000 FEET WITH NO
      SIGNIFICANT WEATHER AND/OR OBSTRUCTIONS TO VISIBILITY.
      SKY/WX - SKY CONDITION AND SIGNIFICANT WEATHER.
      TMP - AIR TEMPERATURE.     DP    - DEWPOINT TEMPERATURE.
      RH  - RELATIVE HUMIDITY.   PRES  - PRESSURE.
      HI  - HEAT INDEX.          WCI   - WIND CHILL INDEX.

*  THESE STATIONS ARE NOT NWS OR FAA STATIONS AND ARE NOT UNDER
   NWS QUALITY CONTROL.

LAZ038-040-048-061>063-065>067-069-250100-
SOUTHEAST LOUISIANA

CITY           SKY/WX    TMP DP  RH WIND       PRES   REMARKS
N.O. INTL ARPT PTCLDY    74  51  44 NW5       29.79F
6HR MIN TEMP:  73; 6HR MAX TEMP:  77;

N.O. LAKEFRONT CLEAR     75  56  51 W12       29.79F
6HR MIN TEMP:  73; 6HR MAX TEMP:  76;

N.O. DOWNTOWN*   N/A     76  49  38 VRB3        N/A
6HR MIN TEMP:  72; 6HR MAX TEMP:  78;

RESERVE*       NOT AVBL
SLIDELL        CLEAR     76  50  40 CALM      29.78S
6HR MIN TEMP:  74; 6HR MAX TEMP:  79;

BATON ROUGE    CLEAR     77  45  32 CALM      29.79S
6HR MIN TEMP:  74; 6HR MAX TEMP:  79;

BOOTHVILLE     CLEAR     73  53  49 NW5       29.81F
6HR MIN TEMP:  71; 6HR MAX TEMP:  75;

BELLE CHASSE   PTCLDY    73  52  47 VRB3      29.79S
BOGALUSA*      NOT AVBL
GALLIANO*      CLEAR     74  49  41 N3        29.80F
6HR MIN TEMP:  73; 6HR MAX TEMP:  78;

NEW ROADS*       N/A     73  46  36 CALM      29.79F
6HR MIN TEMP:  72; 6HR MAX TEMP:  76;

GONZALES*        N/A     73  51  46 SW3       29.78F
6HR MIN TEMP:  72; 6HR MAX TEMP:  77;

HAMMOND*       CLEAR     75  43  31 NW3       29.79S
HOUMA*         CLEAR     75  48  38 W9        29.80F
PORT FOURCHON* CLEAR     73  50  43 W9        29.81S

$$

MSZ070-080>082-250100-
SOUTHERN MISSISSIPPI

CITY           SKY/WX    TMP DP  RH WIND       PRES   REMARKS
MCCOMB         CLEAR     74  45  35 N3        29.79S
6HR MIN TEMP:  73; 6HR MAX TEMP:  78;

GULFPORT       CLEAR     76  52  43 N6        29.77R
6HR MIN TEMP:  75; 6HR MAX TEMP:  80;

BILOXI         CLEAR     74  53  48 N7        29.77S
6HR MIN TEMP:  74; 6HR MAX TEMP:  79;

PASCAGOULA     CLEAR     72  52  49 N3        29.78R
6HR MIN TEMP:  72; 6HR MAX TEMP:  79;

STENNIS ARPT*  CLEAR     73  43  33 N5        29.78S

$$

COASTAL OBSERVATIONS
LAKE AND NEARSHORE STATIONS

STATION/POSITION TIME  TEMP    WIND        PRES    WAVE
                       AIR SEA DIR/SP/G            HT/PER
                 (UTC) (F)     (DEG/KT/KT) (MB)    (FT/S)
PASCAGOULA       2336   74     340/  8/ 11 1008.1
WAVELAND YACHT   2330   75 75  310/  5/  8 1008.1
GRAND ISLE       2336   76 74  360/  6/  8 1009.0
SOUTHWEST PASS   2330          280/  9/ 12   N/A
NEW CANAL        2330   75 76  270/  6/  8 1008.7
SHELL BEACH      2336   74 75  280/ 12/ 13 1008.7

OFFSHORE STATIONS

STATION/POSITION TIME  TEMP    WIND        PRES    WAVE
                       AIR SEA DIR/SP/G            HT/PER
                 (UTC) (F)     (DEG/KT/KT) (MB)    (FT/S)
64 S DAUPHIN ISL 2350   71 74  270/ 14/ 17 1009.3    3/ 5

$$





USA.gov is the U.S. government's official web portal to all federal, state and local government web resources and services.